Regional Weather Roundup
Issued by NWS Goodland, KS

Home | Current Version | Previous Version | Text Only | Print | Product List | Glossary Off
Versions: 1 2 3 4 5 6 7 8 9 10 11 12 13 14 15 16 17 18 19 20 21 22 23 24 25 26 27 28 29 30 31 32 33 34 35 36 37 38 39 40 41 42 43 44 45 46 47 48 49 50

000
ASUS43 KGLD 050759
RWRGLD

GOODLAND FORECAST AREA HOURLY WEATHER ROUNDUP
NATIONAL WEATHER SERVICE GOODLAND KS
200 AM MDT SUN JUL 05 2015

...OFFICIAL OBSERVATIONS...

CITY           SKY/WX    TMP DP  RH WIND       PRES   REMARKS
GOODLAND KS    CLOUDY    72  62  71 S17       29.89F
HILL CITY KS   MOCLDY    78  66  66 S10       29.89S
IMPERIAL NEB   MOCLDY    74  61  63 S8        29.88S
MCCOOK NEB     MOCLDY    75  64  68 SE9       29.86F
AKRON CO       MOCLDY    67  53  61 S6        29.95F
BURLINGTON CO  PTCLDY    68  58  70 SE13      29.92F
LIMON CO       PTCLDY    55  54  96 N5        30.00F
$$

...UNOFFICIAL OBSERVATIONS...

CITY           SKY/WX    TMP DP  RH WIND       PRES   REMARKS
COLBY KS       CLEAR     79  66  65 S22G30    29.90F
GOVE KS          N/A     76  32  20 MISG        N/A
NORTON KS      CLEAR     73  61  64 SE8       29.88F
SHARON SPRINGS   N/A     69  61  76 SE10        N/A
KIT CARSON CO    N/A     67  57  70 MISG        N/A
$$



USA.gov is the U.S. government's official web portal to all federal, state and local government web resources and services.